Regional Weather Roundup
Issued by NWS

Home | Current Version | Previous Version | Text Only | Print | Product List | Glossary Off
Versions: 1 2 3 4 5 6 7 8 9 10 11 12 13 14 15 16 17 18 19 20 21 22 23 24 25 26 27 28 29 30 31 32 33 34 35 36 37 38 39 40 41 42 43 44 45 46 47 48 49 50

851
ASUS43 KLMK 221802
RWRKY
KENTUCKY REGIONAL WEATHER ROUNDUP
NATIONAL WEATHER SERVICE LOUISVILLE KY
100 PM EST WED FEB 22 2017

NOTE "FAIR" INDICATES FEW OR NO CLOUDS BELOW 12,000 FEET
WITH NO SIGNIFICANT WEATHER AND/OR OBSTRUCTIONS TO VISIBILITY.

KYZ001>023-026-027-061>063-070>075-221900-
WESTERN AND SOUTH CENTRAL KENTUCKY

CITY           SKY/WX    TMP DP  RH WIND       PRES   REMARKS
PADUCAH        PTSUNNY   66  56  70 SE8       29.85F
HENDERSON      CLOUDY    66  55  68 CALM      29.85F
OWENSBORO      PTSUNNY   68  58  70 S9        29.86F
HOPKINSVILLE   MOSUNNY   68  57  67 S7        29.85F
BOWLING GREEN  PTSUNNY   67  57  70 S7        29.88F
GLASGOW        NOT AVBL
$$

KYZ024-025-028>034-038-045-046-053-221900-
NORTH CENTRAL KENTUCKY

CITY           SKY/WX    TMP DP  RH WIND       PRES   REMARKS
LOUISVILLE/SDF PTSUNNY   68  54  60 S6        29.86F
LOUISVILLE/LOU MOSUNNY   67  55  65 S9        29.87F
FORT KNOX      MOSUNNY   68  57  67 S9        29.86F
$$

KYZ035>037-039>044-047>052-055>060-089>105-221900-
NORTHEAST KENTUCKY

CITY           SKY/WX    TMP DP  RH WIND       PRES   REMARKS
LEXINGTON      CLOUDY    64  55  72 SW13      29.90F
COVINGTON      CLOUDY    60  57  89 SW9       29.88F
FRANKFORT      MOSUNNY   66  55  67 S9        29.88F
$$

KYZ054-064>069-076>088-106>120-221900-
SOUTHEAST KENTUCKY

CITY           SKY/WX    TMP DP  RH WIND       PRES   REMARKS
JACKSON        CLOUDY    56  54  93 CALM      29.93F FOG
LONDON         LGT RAIN  58  54  86 S3        29.92F
SOMERSET       CLOUDY    57  55  94 S3        29.93F
MIDDLESBORO    CLOUDY    57  54  88 CALM      29.95F
MONTICELLO     CLOUDY    60  56  86 E7        29.93F
$$





USA.gov is the U.S. government's official web portal to all federal, state and local government web resources and services.